Temperature
23 23 22 23 23 23 24 23 23 24 25 24 24 24 24 24 24 24 23 23 23 23 22 22 21 21 21 20 20 19 19 18 17 17 17 16 16 16 16 15 15 15 14 14
23 22 24 24 24 24 24 23 23 24 25 25 24 23 24 25 25 24 24 24 23 23 22 22 21 21 21 20 20 19 19 18 17 17 17 16 16 16 16 15 15 15 14 14
22 23 24 25 24 24 24 23 23 24 24 25 24 23 24 25 25 24 24 24 24 23 23 22 21 21 20 20 20 19 19 18 17 17 16 16 16 16 16 15 15 15 14 14
23 24 24 24 24 24 23 24 24 24 24 23 23 22 23 24 24 24 24 24 24 24 23 22 21 21 20 20 19 19 19 18 17 17 17 16 16 16 16 15 15 15 15 14
23 24 24 24 24 24 24 25 25 24 24 24 23 22 23 24 24 24 24 24 24 23 23 22 21 21 20 20 19 19 18 18 17 17 17 16 16 16 16 15 15 15 15 15
24 25 24 24 25 25 25 25 24 24 23 22 24 23 23 24 24 25 25 24 24 23 23 22 21 21 20 20 19 19 18 18 17 17 17 17 16 16 16 15 15 15 15 15
24 24 25 25 24 25 24 22 22 22 21 22 24 24 23 25 25 25 25 24 23 23 22 22 21 21 20 20 19 19 18 18 17 17 17 17 16 16 16 16 15 15 15 15
23 23 24 25 24 24 23 22 21 21 22 23 25 24 24 25 25 25 24 24 23 23 22 21 21 20 20 19 19 19 18 18 18 17 17 17 17 16 16 16 16 15 15 15
23 23 25 25 26 25 24 23 24 23 24 24 24 24 24 25 24 24 24 23 23 22 22 21 21 20 20 19 19 19 18 18 18 17 17 17 17 16 16 16 16 16 15 15
24 24 25 25 26 25 25 25 25 24 23 23 23 24 23 23 24 24 24 23 23 22 22 21 21 20 20 19 19 19 18 18 18 17 17 17 17 16 16 16 16 16 15 15
25 24 25 25 25 25 25 26 25 25 25 23 22 23 25 24 24 24 24 23 22 22 21 21 20 20 20 19 19 18 18 18 18 17 17 17 17 16 16 16 16 16 15 15
26 25 24 25 26 27 26 26 26 24 25 24 23 22 25 25 24 24 23 23 22 22 21 21 20 20 19 19 19 18 18 18 18 17 17 17 17 16 16 16 16 16 16 15
25 25 24 24 25 26 26 26 26 26 25 25 23 22 25 24 24 24 23 22 22 21 21 20 20 19 19 19 19 19 18 18 17 17 17 17 17 16 16 16 16 16 16 16
24 25 24 23 25 26 26 26 26 26 25 24 23 23 24 24 23 23 22 22 21 21 20 20 20 19 19 19 19 18 18 18 17 17 17 17 16 16 16 16 16 16 16 16
26 25 25 26 26 26 26 26 26 25 25 24 24 23 24 23 23 23 22 21 21 20 20 20 19 19 19 18 18 18 18 18 17 17 17 16 16 16 16 16 16 15 15 15
26 25 26 25 26 26 25 26 25 25 25 25 24 23 24 24 23 22 22 21 20 20 19 19 19 19 19 18 18 18 18 18 17 17 17 16 16 16 16 16 15 15 15 15
26 26 25 25 26 25 24 25 25 25 25 25 24 23 23 23 22 22 21 20 20 19 19 19 18 18 18 18 18 18 18 17 17 17 17 16 16 16 16 15 15 15 15 15
25 25 25 25 25 23 24 26 25 24 24 25 24 23 23 22 22 21 20 20 19 19 18 18 18 18 18 18 18 18 17 17 17 17 16 16 16 16 15 15 15 15 15 15
25 24 24 24 24 24 24 25 25 24 23 24 23 23 22 22 21 20 20 19 18 18 18 17 17 17 17 17 17 17 17 17 16 16 16 16 16 15 15 15 15 15 15 14
24 24 24 24 23 23 23 24 25 24 22 23 23 23 22 22 20 19 19 18 18 17 17 17 17 17 17 17 16 16 16 16 16 16 15 15 15 15 15 15 15 15 14 14
23 23 23 23 23 23 23 23 24 22 22 23 22 22 21 21 20 19 18 18 17 17 17 16 16 16 16 16 16 16 15 15 15 15 15 15 15 15 15 14 14 14 14 14
24 23 23 23 23 22 22 23 22 21 22 21 21 20 20 19 19 18 17 17 17 16 16 16 15 15 15 15 15 15 15 15 14 14 14 14 14 14 14 14 14 14 14 13
24 23 23 22 21 21 21 21 21 20 20 20 20 19 18 18 18 17 17 16 16 16 15 15 15 15 15 14 14 14 14 14 14 14 14 14 14 14 14 14 13 13 13 13
23 23 22 21 20 20 20 20 19 19 19 18 18 18 18 17 17 17 16 16 15 15 15 15 14 14 14 14 14 14 13 13 13 13 13 13 13 13 13 13 13 13 13 13
21 22 22 21 19 19 19 18 18 18 17 17 17 17 17 16 16 16 16 15 15 14 14 14 14 14 13 13 13 13 13 13 13 12 13 13 12 12 12 12 12 12 12 12
21 20 20 20 19 19 18 17 17 17 16 16 16 16 16 15 15 15 15 14 14 14 13 13 13 13 13 13 13 12 12 12 12 12 12 12 12 12 12 12 12 12 12 12
Wind_Speed
8 7 6 7 6 4 3 2 3 4 5 6 7 6 6 8 8 8 9 8 9 9 9 9 7 6 6 5 5 6 6 5 5 3 2 2 2 1 2 2 4 3 5 6
5 6 5 4 4 4 3 3 3 5 5 5 5 5 7 8 8 7 7 7 8 8 9 9 8 7 6 6 5 6 6 6 5 3 2 2 1 1 2 2 2 4 5 5
4 4 5 5 6 5 3 3 4 6 6 5 4 4 6 8 7 6 6 6 6 8 9 9 8 7 6 6 5 5 5 7 6 4 2 2 2 1 1 0 1 1 2 2
3 3 4 5 4 3 2 3 4 5 5 4 5 3 5 7 7 6 5 6 6 7 9 8 7 7 7 6 6 5 5 6 6 4 3 2 1 0 0 0 1 1 1 1
3 5 4 4 3 1 1 2 4 5 4 4 6 4 3 7 7 6 7 7 7 7 8 9 7 6 7 7 6 5 5 5 5 4 4 2 0 0 1 1 1 1 0 0
3 4 3 2 2 2 2 3 4 3 2 2 5 4 3 4 6 7 7 7 7 7 8 8 7 6 6 6 6 5 5 5 4 3 4 4 2 1 0 1 1 2 1 1
5 5 4 3 3 4 3 0 1 3 3 2 4 5 5 7 8 7 7 7 7 7 7 7 7 6 6 7 6 5 5 4 4 3 3 3 3 2 2 1 1 2 1 0
4 5 5 4 3 3 4 4 2 1 3 5 4 5 7 9 9 8 8 8 7 7 7 6 6 6 6 6 6 5 5 4 4 3 2 2 3 2 1 1 1 2 1 0
2 4 6 5 4 2 2 5 5 3 3 4 6 9 8 8 7 7 9 8 7 7 7 6 6 6 5 6 5 5 4 4 4 4 3 2 1 1 0 2 2 1 1 1
2 3 6 5 5 4 5 4 2 1 1 4 7 7 6 7 7 7 8 7 7 6 6 6 6 5 5 5 5 4 4 4 4 3 3 2 2 2 1 2 2 2 2 1
3 2 5 6 4 3 4 3 2 2 1 2 4 5 7 8 7 7 8 7 6 6 5 5 4 4 4 5 5 4 4 3 3 4 3 3 3 2 2 3 2 2 2 2
3 2 4 6 5 3 3 3 2 1 1 3 4 4 6 9 8 8 8 7 6 6 6 5 5 5 4 3 3 4 3 3 3 2 2 2 2 2 2 2 2 3 3 2
4 2 2 5 6 5 2 2 4 3 1 1 3 6 7 8 8 8 8 7 7 6 6 6 5 4 3 3 2 2 2 2 3 3 2 1 1 2 2 2 2 3 3 3
2 4 2 1 1 3 3 1 2 3 1 2 5 9 8 8 8 8 8 7 7 6 5 6 5 4 3 2 1 1 1 1 1 2 2 1 1 1 1 2 2 3 3 3
4 5 3 1 2 2 1 1 0 1 3 2 6 8 8 9 9 8 8 8 7 6 6 5 4 3 3 1 1 1 1 1 1 2 1 2 2 1 1 2 2 3 3 4
5 4 3 3 3 3 3 3 2 1 0 4 5 6 8 9 8 8 8 7 7 6 5 5 4 3 2 2 1 1 0 0 1 2 2 2 1 1 1 2 3 3 2 3
5 5 4 3 5 6 5 4 5 3 1 2 3 5 9 8 8 7 8 7 7 6 5 5 4 4 3 3 2 1 1 0 0 1 1 1 1 1 2 2 3 3 3 4
6 6 4 4 6 6 3 6 6 4 3 4 8 9 8 8 8 8 7 7 6 6 5 5 5 5 5 5 4 3 2 2 2 1 1 0 1 2 2 3 4 4 3 4
6 6 5 4 4 3 6 6 6 4 4 5 7 8 8 10 9 8 8 7 6 6 5 4 4 4 5 5 5 4 3 3 3 3 3 2 1 2 2 3 4 4 4 4
6 7 6 5 5 3 5 7 5 4 4 5 6 7 7 7 4 5 6 7 7 6 5 4 4 5 6 6 6 5 4 4 4 3 4 3 2 3 3 4 4 4 4 5
7 7 8 8 6 2 6 6 4 3 4 6 6 6 5 5 5 7 7 7 6 5 5 4 4 4 4 5 5 5 5 4 4 3 4 4 4 4 4 3 3 4 4 5
6 5 6 6 6 2 4 4 2 6 9 8 8 7 8 8 8 7 6 5 4 4 4 4 3 3 3 4 5 5 5 5 4 4 4 4 4 5 4 3 4 4 4 5
2 1 2 2 4 7 7 8 9 9 8 8 7 7 7 6 5 4 4 3 3 3 3 3 3 3 3 3 4 4 4 5 5 5 5 5 5 4 4 3 4 4 4 4
2 3 1 4 6 7 8 8 8 8 8 7 7 6 5 4 3 3 2 2 3 3 3 3 4 4 4 4 4 4 4 5 5 6 6 5 5 5 4 4 4 4 4 4
2 1 1 2 6 6 6 6 7 7 7 7 6 5 4 3 2 2 2 3 3 3 3 3 3 4 5 4 4 4 4 4 6 6 6 6 5 5 4 4 4 5 5 5
1 1 2 1 5 4 6 6 6 6 5 4 4 3 3 3 3 3 3 3 3 3 3 3 4 4 5 6 6 5 5 5 6 5 5 5 5 5 4 5 6 8 9 11
Wind_Direction
199 210 214 209 207 255 250 204 172 155 165 177 186 174 171 171 169 166 162 166 172 171 160 148 148 145 146 140 130 118 119 114 107 89 64 66 57 4 49 61 54 22 19 20
197 216 220 190 198 241 223 176 158 144 168 184 171 172 163 165 172 175 170 169 173 154 148 147 148 152 155 143 132 124 123 120 109 103 97 105 78 356 68 53 52 24 33 20
202 206 208 194 193 207 201 150 165 158 168 177 160 164 154 160 158 158 172 165 153 147 145 147 158 153 148 140 131 129 131 122 117 126 102 77 69 346 33 61 80 40 46 26
189 183 203 203 202 197 185 155 175 185 178 184 166 128 156 154 153 162 168 155 149 146 141 144 153 152 151 141 135 143 139 132 132 137 124 125 132 274 42 59 122 233 176 147
183 172 184 193 202 196 196 187 212 208 215 199 154 134 163 156 160 164 163 157 148 143 137 142 147 151 152 145 144 148 140 134 134 138 139 180 125 343 37 36 14 293 204 81
172 158 176 198 162 208 200 204 231 220 247 214 161 139 118 139 139 145 141 136 139 139 138 138 138 140 139 133 137 144 139 131 133 156 170 176 153 136 1 306 300 302 270 235
165 159 160 189 186 189 216 169 227 188 181 166 146 109 93 82 83 96 116 122 118 122 125 124 129 132 135 135 139 144 142 146 157 181 196 181 163 192 220 245 243 272 281 251
173 163 172 192 218 202 191 172 211 189 150 142 139 107 101 92 87 92 95 101 108 112 111 115 121 129 138 142 146 153 157 164 168 187 215 228 156 176 199 231 259 265 268 229
209 151 165 191 226 262 208 202 209 225 165 132 123 115 111 106 106 106 102 102 101 107 113 117 117 125 138 150 157 165 163 170 177 190 203 211 181 153 218 271 281 291 304 315
251 145 163 179 222 227 255 269 228 222 136 125 129 127 135 134 130 117 107 105 105 109 115 117 120 125 134 144 154 157 161 172 185 193 202 186 195 179 206 266 278 290 302 314
239 184 171 175 207 222 219 241 256 267 208 129 118 82 113 126 117 112 111 111 114 110 107 106 110 118 125 131 143 150 167 180 190 203 205 191 182 180 216 244 255 265 265 273
242 231 184 178 175 251 302 320 305 294 71 111 112 98 93 106 101 99 100 103 104 98 99 104 101 96 100 114 133 148 171 184 191 205 211 196 174 183 215 252 260 264 258 250
334 269 184 169 174 197 215 300 313 305 293 109 112 122 110 103 101 95 96 96 94 92 90 95 98 98 101 109 122 141 161 184 181 177 195 204 210 220 224 257 274 278 266 253
304 279 253 206 132 157 171 183 313 317 338 78 106 126 129 116 106 100 97 95 91 88 84 84 89 99 101 97 113 122 139 152 151 153 177 207 226 237 256 262 262 276 285 279
249 266 254 162 112 123 129 145 150 341 346 69 110 124 128 120 114 110 105 98 92 85 77 77 81 82 92 79 61 99 141 158 169 168 183 231 234 212 248 282 281 280 293 296
241 262 249 215 191 178 192 206 198 208 84 121 117 103 108 111 109 111 107 101 92 81 71 62 61 67 73 79 63 41 27 187 175 170 194 220 223 228 241 275 289 286 283 284
237 248 261 237 193 190 211 201 194 186 199 172 148 116 117 111 106 104 105 98 86 74 63 49 40 36 35 39 51 61 314 291 179 148 171 196 209 229 230 257 270 270 270 270
273 277 266 238 221 230 120 106 116 119 96 93 107 114 118 114 100 90 90 92 86 76 64 47 32 30 21 22 20 17 29 34 25 19 24 252 246 251 245 251 267 264 264 262
264 271 270 251 241 205 147 143 144 144 131 105 119 125 126 121 106 93 82 80 76 69 61 48 29 28 22 18 8 2 17 29 26 10 355 348 315 277 260 256 262 264 268 269
245 252 259 262 247 237 128 128 128 151 153 120 123 131 140 142 140 113 94 81 72 64 56 43 29 29 23 11 6 3 4 11 7 353 336 332 308 276 257 254 261 263 263 266
205 221 235 256 257 106 100 118 150 190 131 118 113 109 107 97 81 96 88 78 71 62 49 39 33 30 17 5 0 354 358 358 350 333 320 317 305 285 267 253 254 263 265 272
202 214 220 233 238 149 118 145 137 92 91 92 89 85 84 83 83 86 84 81 75 65 49 32 22 15 11 7 357 353 351 346 343 329 314 303 293 293 294 273 262 262 262 270
198 351 359 45 81 86 76 79 81 93 90 83 81 80 82 86 85 80 80 82 75 64 48 28 7 352 359 5 354 344 340 340 334 323 313 307 302 299 298 289 277 267 263 264
116 41 78 96 109 102 93 86 79 81 80 76 76 77 78 71 72 65 60 60 60 50 35 16 360 348 344 347 344 338 337 332 323 314 308 307 308 304 303 298 286 278 267 264
63 7 273 128 122 111 102 99 90 85 81 78 73 70 62 53 45 32 22 30 35 29 19 3 344 334 331 334 331 326 325 325 316 311 312 311 308 301 297 292 286 283 275 265
253 281 257 186 158 153 139 123 112 106 98 92 84 71 53 35 32 21 14 24 22 8 359 348 339 335 331 333 334 332 329 320 312 311 313 312 310 304 295 291 293 279 274 275
Height
1480 1481 1483 1481 1479 1480 1479 1483 1486 1483 1480 1484 1487 1488 1487 1489 1491 1494 1496 1499 1501 1504 1507 1510 1512 1514 1516 1518 1519 1520 1520 1521 1521 1521 1522 1522 1522 1522 1522 1521 1520 1519 1518 1516
1480 1482 1477 1475 1476 1478 1478 1484 1485 1483 1479 1482 1486 1488 1486 1487 1490 1492 1494 1497 1500 1503 1506 1508 1511 1513 1516 1517 1518 1519 1520 1520 1520 1521 1521 1521 1522 1522 1521 1520 1520 1519 1517 1516
1482 1478 1474 1475 1477 1479 1479 1483 1484 1484 1481 1481 1487 1492 1488 1486 1488 1491 1493 1496 1499 1502 1505 1508 1511 1513 1515 1516 1518 1519 1519 1520 1520 1521 1521 1521 1521 1521 1521 1520 1519 1519 1517 1516
1478 1475 1475 1476 1477 1477 1483 1478 1479 1481 1487 1492 1490 1506 1493 1487 1489 1490 1493 1495 1498 1501 1504 1507 1510 1512 1514 1516 1517 1518 1519 1520 1520 1520 1521 1521 1521 1521 1521 1520 1519 1519 1518 1516
1478 1475 1476 1478 1477 1477 1479 1475 1477 1480 1485 1489 1490 1502 1499 1487 1491 1490 1491 1494 1497 1501 1503 1506 1509 1511 1513 1515 1516 1517 1519 1519 1520 1520 1520 1521 1521 1521 1521 1520 1519 1519 1518 1517
1475 1473 1475 1475 1475 1476 1476 1478 1479 1481 1488 1501 1491 1498 1502 1490 1489 1489 1490 1494 1497 1500 1503 1505 1508 1510 1512 1514 1515 1517 1518 1519 1519 1520 1520 1521 1521 1520 1520 1520 1519 1518 1518 1517
1478 1475 1474 1475 1477 1477 1478 1490 1501 1504 1507 1504 1486 1494 1500 1487 1486 1488 1490 1494 1497 1500 1503 1505 1507 1509 1511 1513 1514 1516 1517 1518 1519 1519 1520 1520 1520 1520 1520 1519 1519 1518 1518 1517
1484 1485 1476 1475 1477 1480 1481 1490 1506 1512 1506 1499 1486 1497 1495 1487 1488 1491 1493 1495 1498 1501 1503 1505 1507 1509 1511 1512 1513 1515 1516 1517 1518 1518 1519 1520 1520 1519 1519 1519 1518 1518 1517 1517
1482 1482 1473 1472 1472 1474 1481 1484 1481 1489 1488 1497 1494 1493 1492 1489 1491 1492 1495 1497 1500 1502 1504 1506 1508 1509 1510 1511 1513 1514 1515 1516 1517 1517 1518 1519 1519 1519 1518 1518 1518 1517 1517 1516
1473 1481 1474 1472 1472 1473 1474 1473 1478 1488 1499 1505 1500 1498 1501 1495 1494 1493 1496 1499 1502 1504 1505 1507 1508 1509 1510 1511 1512 1513 1514 1515 1516 1517 1517 1518 1518 1518 1517 1517 1517 1516 1516 1515
1470 1478 1477 1474 1476 1475 1474 1474 1474 1478 1482 1499 1510 1508 1486 1490 1491 1494 1497 1500 1502 1504 1506 1507 1508 1509 1510 1511 1512 1512 1513 1514 1515 1516 1516 1517 1517 1516 1516 1516 1516 1515 1515 1514
1468 1473 1478 1474 1468 1467 1468 1470 1473 1485 1486 1486 1500 1509 1485 1488 1492 1495 1498 1501 1503 1505 1506 1508 1509 1509 1510 1511 1511 1512 1512 1513 1514 1515 1515 1516 1515 1515 1515 1515 1514 1514 1514 1513
1469 1473 1484 1484 1479 1471 1470 1469 1469 1471 1477 1485 1499 1507 1488 1490 1493 1496 1499 1502 1504 1506 1507 1508 1509 1510 1510 1511 1511 1512 1512 1512 1513 1513 1513 1514 1514 1514 1513 1513 1513 1512 1512 1512
1472 1473 1481 1489 1480 1472 1474 1473 1471 1473 1483 1488 1492 1497 1492 1493 1495 1498 1501 1503 1505 1506 1508 1508 1509 1510 1511 1511 1511 1511 1511 1512 1512 1512 1512 1512 1512 1512 1512 1511 1511 1510 1510 1510
1469 1473 1470 1469 1467 1468 1472 1474 1474 1477 1478 1486 1490 1491 1491 1492 1496 1499 1502 1504 1506 1508 1508 1509 1510 1510 1510 1511 1511 1511 1511 1511 1511 1511 1511 1510 1511 1510 1510 1509 1509 1509 1508 1508
1467 1470 1469 1471 1468 1470 1474 1474 1475 1478 1479 1483 1487 1491 1489 1492 1496 1499 1502 1505 1507 1508 1509 1510 1510 1510 1510 1510 1510 1510 1510 1510 1509 1509 1509 1509 1509 1509 1508 1507 1507 1507 1506 1505
1466 1469 1474 1477 1470 1472 1482 1475 1476 1479 1479 1481 1488 1491 1490 1494 1497 1500 1503 1505 1507 1509 1510 1510 1510 1510 1510 1510 1509 1509 1509 1509 1508 1508 1507 1507 1507 1506 1506 1505 1505 1504 1504 1503
1468 1469 1471 1475 1476 1490 1480 1469 1472 1477 1480 1480 1484 1488 1492 1495 1499 1502 1504 1506 1507 1509 1510 1510 1510 1510 1510 1509 1509 1508 1508 1507 1507 1506 1506 1505 1505 1504 1503 1503 1502 1501 1501 1500
1467 1471 1474 1476 1482 1482 1477 1471 1473 1479 1484 1482 1485 1489 1493 1496 1499 1503 1505 1506 1508 1509 1509 1509 1510 1509 1509 1508 1508 1507 1507 1506 1505 1505 1504 1503 1502 1502 1501 1500 1499 1498 1498 1497
1469 1469 1475 1476 1483 1487 1477 1471 1473 1479 1488 1485 1486 1490 1493 1495 1500 1505 1506 1507 1508 1508 1509 1509 1509 1509 1508 1507 1507 1506 1505 1505 1503 1503 1502 1501 1500 1499 1498 1497 1496 1495 1495 1494
1473 1473 1477 1479 1479 1477 1474 1473 1476 1489 1490 1486 1488 1491 1493 1496 1500 1504 1505 1506 1507 1508 1508 1508 1508 1507 1507 1506 1505 1505 1504 1503 1502 1500 1499 1498 1497 1496 1495 1494 1493 1492 1491 1490
1467 1471 1472 1474 1480 1485 1476 1476 1480 1485 1484 1487 1490 1493 1495 1498 1501 1503 1504 1506 1506 1507 1507 1507 1507 1506 1506 1505 1504 1503 1502 1501 1499 1498 1497 1495 1494 1493 1492 1491 1489 1488 1487 1486
1462 1466 1466 1471 1480 1478 1478 1479 1483 1485 1487 1490 1492 1495 1497 1500 1502 1503 1504 1505 1505 1506 1506 1505 1505 1505 1504 1503 1502 1501 1500 1498 1496 1495 1494 1493 1491 1490 1489 1487 1486 1484 1483 1482
1462 1464 1468 1474 1478 1479 1481 1483 1486 1487 1490 1492 1494 1497 1498 1500 1502 1503 1504 1504 1504 1504 1504 1504 1503 1503 1502 1501 1500 1499 1497 1496 1494 1492 1491 1489 1488 1486 1485 1484 1482 1481 1480 1478
1466 1467 1469 1473 1479 1481 1484 1486 1488 1490 1492 1494 1496 1497 1499 1500 1501 1502 1502 1503 1503 1503 1503 1502 1501 1501 1500 1499 1498 1496 1495 1493 1491 1490 1488 1487 1485 1483 1481 1480 1479 1477 1475 1475
1469 1471 1473 1475 1478 1480 1484 1486 1489 1491 1493 1494 1496 1497 1499 1499 1500 1501 1501 1501 1501 1501 1501 1500 1499 1499 1498 1496 1495 1494 1492 1490 1488 1487 1485 1483 1481 1479 1477 1475 1473 1472 1471 1469